Location: *
(42.1160°S, 166.9240°W)
Time: 21:43:52
(UTC+00:00)

Daily predictions for brighter satellites

Satellite Brightness Start Highest point End
(mag) Time Altitude Azimuth Time Altitude Azimuth Time Altitude Azimuth
SL-16 R/B 4.4 13:19:18 10° SE 13:24:01 23° E 13:24:01 23° E
USA 234 4.5 13:33:07 10° E 13:39:01 36° SSE 13:40:24 33° S
Cosmos 2297 Rocket 3.7 14:30:34 26° SSW 14:30:34 26° SSW 14:33:32 10° S
ATLAS 2AS CENTAUR R/B 3.6 14:33:34 32° NNE 14:33:34 32° NNE 14:37:00 10° NNE
BREEZE-M DEB (TANK) 4.3 14:31:51 30° SSE 14:31:51 30° SSE 14:33:44 10° ESE
Okean-O 4.3 14:33:52 30° SSE 14:33:52 30° SSE 14:36:21 10° S
NOSS 3-3 (A) 4.4 14:33:54 66° N 14:35:07 81° ENE 14:42:38 10° SE
NOSS 3-3 (C) 4.4 14:33:58 66° N 14:35:13 80° ENE 14:42:43 10° SE
Gbstr 26 Del rocket 4.4 14:35:54 65° NNW 14:35:54 65° NNW 14:43:20 10° NE
Cosmos 2227 4.2 14:42:22 76° ENE 14:42:22 76° ENE 14:48:02 10° SSE
USA 267 3.3 14:40:22 10° SE 14:46:52 61° SW 14:47:33 58° WSW
ADEOS II 4.4 14:52:15 12° SSW 14:52:15 12° SSW 14:52:37 10° SSW
SL-08 ROCKET BODY 4.5 14:46:10 51° NNE 14:47:41 74° E 14:53:48 10° S
Cosmos 1975 4.4 14:47:41 32° ENE 14:48:03 33° E 14:51:44 10° SSE
Cosmos 2227 Rocket 4.0 14:56:19 17° SSW 14:56:19 17° SSW 14:58:52 10° S
Cosmos 2184 Rocket 4.2 14:53:55 27° N 14:57:36 74° E 15:04:03 10° S
Cosmos 1603 3.5 14:56:04 10° SSW 15:01:45 80° WNW 15:07:22 10° NNE
ATLAS CENTAUR R/B 1.7 15:02:43 83° ENE 15:02:43 83° ENE 15:07:30 10° NNE
SL-16 R/B 2.6 15:02:00 10° S 15:08:12 59° WSW 15:09:06 54° WNW
Cosmos 1943 3.7 15:04:41 10° SSW 15:10:22 59° ESE 15:16:00 10° NE
BREEZE-M DEB (TANK) 3.8 15:13:50 49° SW 15:15:05 84° SSE 15:28:09 10° ENE
Cosmos 1544 Rocket 3.4 15:19:00 75° WNW 15:19:10 76° W 15:23:40 10° S
Lacrosse 5 rocket 4.0 15:19:10 10° SSW 15:20:03 11° S 15:20:56 10° S
Cosmos 2263 Rocket 2.9 15:15:56 13° N 15:20:41 51° ENE 15:26:11 10° SE
USA 234 3.2 15:14:57 10° NE 15:21:32 90° NW 15:27:46 12° SW
Radarsat Rocket 4.3 15:15:56 10° NNE 15:22:31 83° WNW 15:30:08 10° SSW
Ariane Rocket 3.9 15:25:32 10° NE 15:30:27 50° ESE 15:35:26 10° S
Meteor 2-13 Rocket 4.3 15:25:33 12° N 15:31:17 81° W 15:37:27 10° S
Cosmos 2154 Rocket 4.2 15:25:35 10° N 15:31:50 73° E 15:38:13 10° SSE
CZ-2C R/B 4.5 15:27:58 10° NE 15:32:04 28° ESE 15:36:07 10° S
Cosmos 1626 Rocket 4.0 15:28:30 10° S 15:32:56 63° E 15:37:20 10° NNE
Delta 2 Rocket 4.2 15:34:59 31° N 15:35:05 31° N 15:38:43 10° ENE
Cosmos 1500 3.2 15:37:47 56° W 15:38:01 57° W 15:41:56 10° S
Cosmos 1602 Rocket 3.7 15:36:33 10° S 15:40:58 74° E 15:45:20 10° NNE
Cosmos 1241 Rocket 4.5 15:38:52 10° SW 15:44:59 56° WNW 15:51:11 10° NNE
Cosmos 1455 Rocket 3.5 15:51:14 32° WNW 15:52:36 40° WSW 15:56:54 10° S
MOZ.5/SAFIR/RUBIN 5/SL-8 4.3 15:48:22 10° S 15:52:52 39° WSW 15:54:40 28° WNW
Landsat 4 4.2 15:51:25 10° S 15:55:07 40° WSW 15:56:07 33° WNW
CZ-4 R/B 3.2 15:54:47 10° NE 15:58:24 34° ESE 16:02:06 10° S
CSL-04 Debris 4.5 15:53:19 10° NNE 15:58:48 72° ESE 16:04:22 10° S
Abrixas 4.2 16:04:06 17° SW 16:05:36 25° S 16:08:07 10° ESE
Cosmos 1538 Rocket 4.1 16:00:44 10° SSW 16:06:03 55° WNW 16:11:18 10° N
Tiangong 1 0.8 16:07:28 35° W 16:08:32 73° NNW 16:11:28 10° ENE
Cosmos 968 Rocket 4.1 16:09:55 18° WNW 16:13:18 36° WSW 16:18:13 10° S
Cosmos 923 Rocket 4.1 16:09:01 10° SSW 16:14:18 81° ESE 16:19:33 10° NNE
Cosmos 2341 Rocket 4.0 16:09:52 10° NNW 16:16:06 71° W 16:22:29 10° S
SMAP 3.9 16:13:46 10° NNE 16:18:20 56° ESE 16:22:59 10° S
NOSS 3-4 (A) 3.7 16:11:58 10° SW 16:19:08 81° WNW 16:25:47 10° NNE
NOSS 3-4 (C) 3.7 16:12:04 10° SW 16:19:15 81° WNW 16:25:53 10° NNE
CSL-04 Rocket 3.7 16:14:09 10° N 16:19:37 66° WNW 16:25:05 10° SSW
ATLAS 2AS CENTAUR R/B 4.1 16:21:11 13° WNW 16:21:11 13° WNW 16:23:19 10° NW
PAYLOAD A 4.1 16:17:19 10° N 16:22:43 67° WNW 16:28:04 10° SSW
Lacrosse 5 3.9 16:19:47 10° N 16:24:07 29° ENE 16:28:31 10° ESE
Cosmos 1975 4.3 16:23:34 16° W 16:24:40 18° WSW 16:27:32 10° SSW
USA 267 4.5 16:23:34 10° SE 16:29:03 29° SSW 16:34:32 10° WSW
EO 1 Del DPAF 3.5 16:27:58 10° S 16:31:48 50° WSW 16:35:33 10° NNW
Cosmos 773 Rocket 4.3 16:27:14 10° SSW 16:32:17 45° WNW 16:37:19 10° N
Cosmos 1842 3.2 16:30:02 10° SSW 16:34:04 69° W 16:38:02 10° N
Meteor 2-19 Rocket 4.5 16:29:16 10° NNW 16:35:17 62° W 16:41:24 10° S
Cosmos 1953 Rocket 4.0 16:31:34 10° S 16:36:03 70° E 16:40:25 10° NNE
Cosmos 2058 Rocket 4.3 16:32:45 10° NNE 16:36:59 48° E 16:41:16 10° SSE
Cosmos 1844 Rocket 3.9 16:31:42 10° N 16:37:01 47° ENE 16:42:25 10° SE
Cosmos 1666 3.2 16:36:25 10° NNW 16:40:05 39° WSW 16:43:47 10° S
IDEFIX/ARIANE 42P 2.6 16:34:58 10° N 16:40:10 63° W 16:45:29 10° SSW
ATLAS CENTAUR R/B 3.5 16:39:11 10° W 16:40:57 12° WNW 16:42:51 10° NW
Meteor 2-9 Rocket 4.1 16:36:08 10° NNW 16:41:28 74° W 16:46:53 10° S
IRS-1A Rocket 4.4 16:36:25 10° N 16:42:12 66° WNW 16:48:09 10° SSW
USA 116 3.2 16:42:18 10° SSE 16:45:31 87° WSW 16:48:54 10° NNW
AQUARIUS 4.2 16:41:56 10° N 16:46:27 76° WNW 16:51:03 10° SSW
Cosmos 2084 Rocket 4.0 16:42:17 10° NW 16:46:48 50° SW 16:51:34 10° SSE
COSMOS 2441 4.5 16:42:40 10° NNE 16:47:34 87° ESE 16:52:29 10° SSW
Cosmos 1606 Rocket 3.6 16:45:25 10° NNW 16:49:52 73° W 16:54:21 10° S
SL-16 R/B 4.4 16:49:28 10° SW 16:50:31 10° SW 16:51:35 10° WSW
Cosmos 2112 Rocket 4.0 16:46:39 10° SSW 16:51:59 73° WNW 16:57:18 10° N
Cosmos 1743 4.3 16:50:54 10° WNW 16:53:31 17° WSW 16:56:10 10° SSW
Cosmos 1943 4.4 16:49:51 10° SW 16:53:53 20° W 16:57:56 10° NW
